Regional Weather Roundup
Issued by NWS

Home | Current Version | Previous Version | Graphics & Text | Print | Product List | Glossary On
Versions: 1 2 3 4 5 6 7 8 9 10 11 12 13 14 15 16 17 18 19 20 21 22 23 24 25 26 27
000
ASUS45 KBOI 191110
RWRID

IDAHO REGIONAL WEATHER ROUNDUP
NATIONAL WEATHER SERVICE BOISE ID
400 AM MST MON FEB 19 2018

NOTE: "FAIR" INDICATES FEW OR NO CLOUDS BELOW 12000 FEET
WITH NO SIGNIFICANT WEATHER AND/OR OBSTRUCTIONS TO VISIBILITY

IDZ012-014-191200-
SOUTHWEST IDAHO


CITY           SKY/WX    TMP DP  RH WIND       PRES   REMARKS
BOISE          CLEAR     21  16  81 CALM      29.66S
CALDWELL       CLEAR     21  16  81 W8        29.70R WCI  11
MOUNTAIN HOME  PTCLDY    21  21 100 NW8       29.64S WCI  11
$$

IDZ016-017-191200-
SOUTHCENTRAL IDAHO


CITY           SKY/WX    TMP DP  RH WIND       PRES   REMARKS
BURLEY         CLEAR     16  11  80 SW8       29.56R WCI   5
JEROME         PTCLDY    22  18  85 SW9       29.58R WCI  12
TWIN FALLS     PTCLDY    19  14  81 SW12      29.58S WCI   7
$$

IDZ019>023-191200-
SOUTHEAST IDAHO


CITY           SKY/WX    TMP DP  RH WIND       PRES   REMARKS
IDAHO FALLS    CLOUDY    16   8  71 N10       29.54R WCI   4
POCATELLO      MOCLDY    23  17  78 W6        29.55S WCI  16
REXBURG        CLOUDY    17  11  77 NE8       29.54R WCI   7
$$

IDZ006-010-011-018-031-032-191200-
CENTRAL IDAHO MOUNTAINS


CITY           SKY/WX    TMP DP  RH WIND       PRES   REMARKS
MCCALL         CLEAR      4   1  88 N6        29.55R WCI  -7
HAILEY         CLEAR     12   3  67 NW12G18   29.53S WCI  -2
STANLEY          N/A     -5  -9  83 S5        29.51R WCI -16
SALMON         CLOUDY    12   1  61 N15       29.70R WCI  -4
CHALLIS        PTCLDY    15   6  67 NW7       29.55R WCI   5
$$

IDZ002-004-006-007-026-191200-
NORTHERN IDAHO


CITY           SKY/WX    TMP DP  RH WIND       PRES   REMARKS
LEWISTON       CLOUDY    27  20  75 W3        29.85R
LOWELL           N/A     21  10  62 VRB7      29.88R WCI  12
COEUR D`ALENE  CLOUDY    10   0  63 N17       29.91S WCI  -8
MULLAN PASS    CLOUDY    -5  -8  87 VRB5      29.59S WCI -16
$$




USA.gov is the U.S. government's official web portal to all federal, state and local government web resources and services.